www.pogodaiklimat.ru
ПОГОДА в Ланкастере
Время
и дата
15:07 04.10
15:53 04.10
16:28 04.10
16:53 04.10
17:29 04.10
17:53 04.10
18:32 04.10
18:53 04.10
19:05 04.10
19:53 04.10
20:13 04.10
20:53 04.10
21:06 04.10
21:53 04.10
22:53 04.10
23:53 04.10
00:53 05.10
01:53 05.10
02:37 05.10
02:50 05.10
02:53 05.10
03:53 05.10
04:27 05.10
04:45 05.10
04:53 05.10
05:02 05.10
05:53 05.10
06:53 05.10
07:53 05.10
08:07 05.10
08:17 05.10
08:35 05.10
08:49 05.10
08:50 05.10
08:57 05.10
09:06 05.10
09:13 05.10
09:21 05.10
09:28 05.10
09:53 05.10
10:53 05.10
11:35 05.10
11:53 05.10
12:14 05.10
12:32 05.10
12:53 05.10
13:53 05.10
14:53 05.10
Ветер
(напр.,м/с)
Видим. Явления Облачность Т
(С)
Тd
(С)
f
(%)
Тe
(С)
Тes
(С)
Комфортность P
(гПа)
Po
(гПа)
Тmin
(С)
Tmax
(С)
R
(мм)
R24
(мм)
S
(см)
С 5 10 км дождь, дымка 10/10 330 m
[Ns]
+10.6 +8.9 89 +8 +8 1000.3
С 6
{11}
16 км 10/10 330 м +11.1 +8.3 83 +8 +8 1015.0 1000.3 2.3
С 5 16 км 10/10 750 м +10.6 +8.3 86 +8 +8 1000.0
С 7
{10}
16 км слабый дождь 10/10 750 m
[Ns]
+10.6 +7.8 83 +7 +7 1014.8 1000.3
С 5
{9}
16 км 10/10 480 м +10.6 +8.3 86 +8 +8 1000.6
С 5 10 км дождь, дымка 10/10 450 m
[Ns]
+10.6 +8.3 86 +8 +8 1015.1 1000.6
С 5 16 км слабый дождь 10/10 360 m
[Ns]
+10.0 +8.3 89 +7 +7 1000.6
С 4 16 км 10/10 360 м +10.0 +8.3 89 +7 +7 1015.2 1000.6 +10.0 +11.1 3.6
С 5 16 км 10/10 360 м +10.0 +8.3 89 +7 +7 1000.6
С 5 16 км слабый дождь 10/10 390 m
[Ns]
+10.6 +8.3 86 +8 +8 1015.0 1000.3
С 4 16 км слабый дождь 10/10 360 m
[Ns]
+10.6 +8.3 86 +8 +8 1000.0
С 3 16 км 10/10 900 м +10.6 +8.9 89 +8 +8 1014.7 1000.0
СЗ 4 16 км 10/10 840 м +10.6 +8.9 89 +8 +8 1000.0
С 3 16 км 10/10 660 м +11.1 +8.9 86 +9 +9 1014.4 999.6
С 4 16 км 10/10 570 м +11.1 +9.4 89 +9 +9 1014.1 999.6
С 4 16 км 10/10 630 м +11.7 +9.4 86 +9 +9 1013.3 998.6
С 4 16 км 10/10 510 м +11.7 +9.4 86 +9 +9 1013.1 998.6 +10.0 +11.7 0.3
СЗ 3 16 км 10/10 480 м +11.1 +10.0 93 +9 +9 1012.7 998.0
С 4 16 км 10/10 420 м +11.7 +9.4 86 +9 +9 998.3
С 3 16 км 10/10 450 м +12.0 +9.0 82 +10 +10 998.0
С 3 16 км 10/10 450 м +11.7 +9.4 86 +10 +10 1012.6 998.0
С 5 16 км слабый дождь 10/10 480 m
[Ns]
+11.7 +10.0 89 +9 +9 1012.2 997.6 0.5
С 3 8 км слабый дождь, дымка 10/10 420 m
[Ns]
+11.7 +10.0 89 +10 +10 998.3
С 4 4 км слабый дождь, дымка 10/10 420 m
[Ns]
+11.7 +10.6 93 +9 +9 998.3
СЗ 3 8 км слабый дождь, дымка 10/10 480 m
[Ns]
+11.7 +10.6 93 +10 +10 1012.8 998.3
С 4 16 км 10/10 300 м +11.7 +10.6 93 +9 +9 998.3
СЗ 4 16 км 10/10 420 м +12.2 +10.0 86 +10 +10 1013.2 998.6
С 5 16 км 10/10 420 м +12.8 +10.0 83 +11 +11 1013.6 999.0 +11.1 +12.8 1.3 10.9
С 5 16 км 10/10 390 м +12.8 +11.1 89 +11 +11 1014.1 999.6
СЗ 5 3 км слабый дождь, дымка 10/10 390 m
[Ns]
+12.8 +11.1 89 +11 +11 999.6
СЗ 5 4 км слабый дождь, дымка 10/10 270 m
[Ns]
+12.8 +11.1 89 +11 +11 999.6
С 5 6 км дымка 10/10 180 м +12.8 +11.1 89 +11 +11 1000.0
С 5 4 км слабый дождь, дымка 10/10 210 m
[Ns]
+13.0 +12.0 94 +11 +11 1000.3
С 5 4 км слабый дождь, дымка 10/10 210 m
[Ns]
+13.3 +11.7 90 +11 +11 1014.7 1000.3
С 4 4 км дымка 10/10 270 м +13.3 +11.7 90 +12 +12 1000.3
С 4 4 км дымка 10/10 210 м +13.3 +12.2 93 +12 +12 1000.3
С 5 4 км дымка 10/10 270 м +13.9 +11.7 87 +12 +12 1000.3
С 5 16 км 10/10 270 м +13.9 +12.2 89 +12 +12 1000.3
С 4 16 км 10/10 270 м +14.4 +12.2 87 +13 +13 1000.3
С 4 16 км 10/10 330 м +14.4 +12.2 87 +13 +13 1014.8 1000.3
С 3 16 км 10/10 420 м +15.6 +12.2 80 +15 +15 1014.9 1000.3
С 5 16 км 10/10 450 м +16.1 +12.8 81 +15 +15 1000.3
СЗ 4 16 км 10/10 450 м +15.6 +12.8 83 +15 +15 1015.1 1000.6
СЗ 4 16 км слабый дождь 10/10 420 m
[Ns]
+15.6 +12.8 83 +15 +15 1000.3
СЗ 5 16 км слабый дождь 10/8 450 m
[Ac Ns]
+15.6 +12.8 83 +14 +15 1000.0
СЗ 5 16 км слабый дождь 10/5 510 m
[Ac Ns]
+15.6 +13.3 86 +14 +15 1014.5 1000.0 +12.8 +16.1 0.3
СЗ 5 16 км 8/5 540 m
[Ac]
+16.7 +13.3 80 +16 +17 1013.9 999.3
СЗ 4 16 км 10/2 660 m
[Ac]
+17.8 +13.3 75 +18 +19 1014.1 999.6
Местоположение метеостанции Lancaster Airport: широта 40.1206 долгота -76.2945 высота над уровнем моря 121 м.
В архиве по умолчанию представлена погода в Ланкастере за последние 1-2 суток. Обновление информации о фактической погоде в базе происходит ежечасно! Архивные данные за месяц целиком и за предыдущие месяцы Вы можете получить, выбрав интересующий диапазон дат из раскрывающегося списка и нажав кнопку "Ввод!".
Внимание! Архив погоды МЕТАР в базе сайта по станциям, не включенным в климатический монитор, хранится не более 60 дней. Нет смысла пытаться выбрать более раннюю дату.
*Определитесь, кто Вы:
Внимание! Время в таблицах - местное (без учета летнего времени). Для получения всемирного времени необходимо вычесть поправку, которая равна -5 ч.
Смотрите также архив погоды в соседних городах и на ближайших метеорологических станциях:
Партнеры нашего сайта:      
Пояснения к столбцам:
  • Ветер - указаны скорость ветра в м/с - средняя за 10 мин, порывы в срок и между сроками (в фигурных скобках) и направление, откуда дует ветер: С - северный,
  • СВ - северо-восточный, В - восточный, ЮВ - юго-восточный, Ю - южный, ЮЗ - юго-западный, З - западный, СЗ - северо-западный.
  • Видимость - горизонтальная дальность видимости в метрах или километрах. При видимости от 1 до 10 км при отсутствии осадков обычно наблюдается дымка, при ухудшении видимости до 1 км и менее - туман. В сухую погоду видимость может ухудшаться дымом, пылью или мглою.
  • Явления - указаны атмосферные явления, наблюдавшиеся в срок или в последний час перед сроком; фигурными скобками обозначены явления, наблюдавшиеся между сроками (за 1-3 часа до срока); квадратными скобками обозначены град или гололедные отложения с указанием их диаметра в мм.
  • Облачность - указаны через наклонную черту общая и нижняя облачность в баллах и высота нижней границы облаков в метрах; квадратными скобками обозначены формы облаков: Ci - перистые, Cs - перисто-слоистые, Cc - перисто-кучевые, Ac - высококучевые, As - высокослоистые, Sc - слоисто-кучевые, Ns - слоисто-дождевые, Cu - кучевые, Cb - кучево-дождевые. Подробнее классификацию облаков см. в Атласе облаков (PDF).
  • T - Температура воздуха - температура, измеренная на высоте 2 м над землей.
  • Td - Температура точки росы - температура, при понижении до которой содержащийся в воздухе водяной пар достигнет насыщения.
  • f - Относительная влажность воздуха - влажноcть воздуха, измеренная на высоте 2 м над землей.
  • Te - Эффективная температура - температура, которую ощущает одетый по сезону человек в тени. Характеристика душности погоды. При расчете учитывается влияние влажности воздуха и скорости ветра на теплоощущения человека.
  • Tes - Эффективная температура на солнце - температура, которую ощущает человек, с поправкой на солнечный нагрев. Характеристика знойности погоды. Зависит от высоты солнца над горизонтом, облачности и скорости ветра. Ночью, в пасмурную погоду, а также при ветре 12 м/с и более поправка равна нулю.
  • P - Атмосферное давление - приведенное к уровню моря атмосферное давление.
  • Po - Атмосферное давление - измеренное на уровне метеостанции атмосферное давление.
  • Tmin - Минимальная температура - минимум температуры воздуха на высоте 2 м над землей.
  • Tmax - Максимальная температура - максимум температуры воздуха на высоте 2 м над землей.
  • R - Количество осадков - Количество выпавших осадков за период времени, мм. При наведении курсора мыши на число - период времени, за который выпало указанное количество осадков.
  • R24 - Количество осадков - Количество выпавших осадков за 24 часа, мм.
  • S - Снежный покров - Высота снежного покрова, см. При наведении курсора мыши на число - состояние снежного покрова и степень покрытия местности в баллах.